Regional Weather Roundup
Issued by NWS Albany, NY

Home | Current Version | Previous Version | Text Only | Print | Product List | Glossary On
Versions: 1 2 3 4 5 6 7 8 9 10 11 12 13 14 15 16 17 18 19 20 21 22 23 24 25 26 27 28 29 30 31 32 33 34 35 36 37 38 39 40 41 42 43 44 45 46 47 48 49
000
ASUS41 KALY 200410
RWRALY

NEW YORK STATE HOURLY WEATHER ROUNDUP
NATIONAL WEATHER SERVICE ALBANY NY
1100 PM EST FRI DEC 19 2014

NOTE: "FAIR" INDICATES FEW OR NO CLOUDS BELOW 12,000 FEET WITH NO
SIGNIFICANT WEATHER AND/OR NO OBSTRUCTIONS TO VISIBILITY.

NYZ032-033-038>043-046>054-057>066-NYZ062>081-200500-
EAST


CITY           SKY/WX    TMP DP  RH WIND       PRES   REMARKS
ALBANY         CLOUDY    27  18  69 NW10      30.21R WCI  17
GLENS FALLS    CLOUDY    25  18  74 NE8       30.21R WCI  16
POUGHKEEPSIE   PTCLDY    26  20  77 CALM      30.18R
NEWBURGH       PTCLDY    28  23  80 CALM      30.17
MONTGOMERY     MOCLDY    25  20  81 CALM      30.16R
WHITE PLAINS   PTCLDY    28  19  69 N10       30.14R WCI  19
ISLIP          PTCLDY    31  20  63 NW8       30.14R WCI  23
NEW YORK CITY  PTCLDY    32  22  66 NW10      30.18R WCI  24
CENTRAL PARK   CLEAR     31  20  63 W6        30.19R WCI  25
$$

NYZ005>009-017-018-044>046-055-056-200500-
CENTRAL


CITY           SKY/WX    TMP DP  RH WIND       PRES   REMARKS
FULTON         CLOUDY    27  20  75 NE5       30.24R WCI  22
SYRACUSE       CLOUDY    26  21  81 W5        30.25R WCI  20
ROME           MOCLDY    22  16  78 VRB3      30.26R
ELMIRA         CLOUDY    28  21  75 W9        30.23R WCI  19
BINGHAMTON     CLOUDY    23  20  88 NW10      30.15R WCI  12
MONTICELLO     CLOUDY    25  19  80 N14       30.13R WCI  13
$$

NYZ026>034-041>043-200500-
NORTH


CITY           SKY/WX    TMP DP  RH WIND       PRES   REMARKS
WATERTOWN      CLEAR     17  11  77 CALM      30.26R
FORT DRUM      NOT AVBL
MASSENA        PTCLDY    12   9  87 SW5       30.26S WCI   4
SARANAC LAKE   CLOUDY    14  32 100 CALM      30.12S
PLATTSBURGH    CLEAR     15  13  91 W3        30.23R
$$

NYZ001>004-010>016-019>021-200500-
WEST


CITY           SKY/WX    TMP DP  RH WIND       PRES   REMARKS
NIAGARA FALLS  CLOUDY    28  22  78 W8        30.26S WCI  20
BUFFALO        CLOUDY    29  21  72 W7        30.26S WCI  22
DUNKIRK        CLOUDY    29  21  72 W7G17     30.28R WCI  22
JAMESTOWN      CLOUDY    21  19  93 CALM      30.21F
WELLSVILLE     CLOUDY    23  18  81 W8        30.19R WCI  14
ROCHESTER      CLOUDY    29  23  78 NW5       30.26R WCI  24
PENN YAN       CLOUDY    29  21  72 W3        30.23R
$$

             KEY
       WCI = WIND CHILL INDEX
       VSB = VISIBILITY
       HX  = HEAT INDEX
$$



USA.gov is the U.S. government's official web portal to all federal, state and local government web resources and services.